• In Spain
  • List of Countries
  • For 7 days
  • Water Temperature
  • Satellite Maps
  • Weather Map
  • Weather Widgets
  • user-avatar
    Login

    Hourly Weather Mshency

    Today, 21 May, Monday

    Time Temperature Precipitation Wind Pressure Humidity
    00:00 +9°C° 0 mm 1 mps 753 mmHg 70%
    01:00 +8°C° 0 mm 1 mps 754 mmHg 72%
    02:00 +6°C° 0 mm 0 mps 754 mmHg 78%
    03:00 +7°C° 0 mm 0 mps 754 mmHg 76%
    04:00 +7°C° 0 mm 0 mps 754 mmHg 74%
    05:00 +8°C° 0 mm 0 mps 755 mmHg 71%
    06:00 +11°C° 0 mm 0 mps 755 mmHg 63%
    07:00 +14°C° 0 mm 0 mps 755 mmHg 55%
    08:00 +17°C° 0 mm 0 mps 756 mmHg 46%
    09:00 +19°C° 0 mm 0 mps 756 mmHg 42%
    10:00 +22°C° 0 mm 1 mps 756 mmHg 38%
    11:00 +23°C° 0 mm 1 mps 756 mmHg 34%
    12:00 +24°C° 0 mm 1 mps 756 mmHg 33%
    13:00 +24°C° 0 mm 1 mps 755 mmHg 32%
    14:00 +24°C° 0 mm 1 mps 755 mmHg 31%
    15:00 +24°C° 0 mm 1 mps 755 mmHg 33%
    16:00 +24°C° 0 mm 1 mps 755 mmHg 34%
    17:00 +23°C° 0 mm 1 mps 754 mmHg 36%
    18:00 +21°C° 0 mm 1 mps 754 mmHg 45%
    19:00 +19°C° 0 mm 1 mps 754 mmHg 53%
    20:00 +15°C° 0 mm 1 mps 754 mmHg 61%
    21:00 +14°C° 0 mm 1 mps 755 mmHg 64%
    22:00 +13°C° 0 mm 1 mps 755 mmHg 67%
    23:00 +12°C° 0 mm 1 mps 755 mmHg 70%

    Tomorrow, 22 May, Tuesday

    Time Temperature Precipitation Wind Pressure Humidity
    00:00 +12°C° 0 mm 1 mps 755 mmHg 72%
    01:00 +11°C° 0 mm 1 mps 755 mmHg 75%
    02:00 +11°C° 0 mm 1 mps 755 mmHg 77%
    03:00 +11°C° 0 mm 1 mps 755 mmHg 77%
    04:00 +12°C° 0 mm 1 mps 755 mmHg 76%
    05:00 +12°C° 0 mm 1 mps 755 mmHg 75%
    06:00 +14°C° 0 mm 1 mps 755 mmHg 67%
    07:00 +16°C° 0 mm 2 mps 755 mmHg 59%
    08:00 +19°C° 0 mm 2 mps 755 mmHg 51%
    09:00 +19°C° 0 mm 3 mps 754 mmHg 47%
    10:00 +20°C° 0 mm 3 mps 754 mmHg 42%
    11:00 +21°C° 0 mm 3 mps 753 mmHg 38%
    12:00 +21°C° 0 mm 3 mps 753 mmHg 39%
    13:00 +21°C° 0 mm 3 mps 753 mmHg 41%
    14:00 +20°C° 0 mm 3 mps 752 mmHg 42%
    15:00 +20°C° 0 mm 2 mps 752 mmHg 47%
    16:00 +19°C° 0 mm 2 mps 751 mmHg 52%
    17:00 +18°C° 0 mm 2 mps 751 mmHg 56%
    18:00 +17°C° 0.1 mm 2 mps 751 mmHg 64%
    19:00 +16°C° 0.1 mm 1 mps 751 mmHg 71%
    20:00 +15°C° 0.1 mm 1 mps 750 mmHg 78%
    21:00 +14°C° 0.2 mm 1 mps 750 mmHg 83%
    22:00 +14°C° 0.2 mm 2 mps 750 mmHg 89%
    23:00 +13°C° 0.2 mm 2 mps 750 mmHg 94%

    Day after tomorrow, 23 May, Wednesday

    Time Temperature Precipitation Wind Pressure Humidity
    00:00 +13°C° 0 mm 2 mps 750 mmHg 95%
    01:00 +13°C° 0 mm 2 mps 750 mmHg 96%
    02:00 +12°C° 0 mm 2 mps 750 mmHg 97%
    03:00 +13°C° 0 mm 2 mps 750 mmHg 96%
    04:00 +13°C° 0 mm 2 mps 750 mmHg 96%
    05:00 +13°C° 0 mm 2 mps 749 mmHg 95%
    06:00 +14°C° 0 mm 2 mps 749 mmHg 92%
    07:00 +15°C° 0 mm 2 mps 749 mmHg 89%
    08:00 +15°C° 0 mm 2 mps 750 mmHg 85%
    09:00 +17°C° 0.1 mm 2 mps 749 mmHg 78%
    10:00 +18°C° 0.1 mm 2 mps 749 mmHg 71%
    11:00 +20°C° 0.1 mm 2 mps 749 mmHg 64%
    12:00 +20°C° 0.3 mm 2 mps 749 mmHg 62%
    13:00 +21°C° 0.3 mm 2 mps 749 mmHg 60%
    14:00 +21°C° 0.3 mm 2 mps 748 mmHg 57%
    15:00 +21°C° 0.6 mm 2 mps 748 mmHg 63%
    16:00 +21°C° 0.6 mm 1 mps 748 mmHg 69%
    17:00 +20°C° 0.6 mm 1 mps 748 mmHg 75%
    18:00 +19°C° 0.1 mm 1 mps 748 mmHg 80%
    19:00 +18°C° 0.1 mm 1 mps 748 mmHg 85%
    20:00 +15°C° 0.1 mm 1 mps 748 mmHg 90%
    21:00 +15°C° 0 mm 1 mps 748 mmHg 91%
    22:00 +14°C° 0 mm 1 mps 748 mmHg 92%
    23:00 +13°C° 0 mm 1 mps 748 mmHg 93%

    24 May, Thursday

    Time Temperature Precipitation Wind Pressure Humidity
    00:00 +13°C° 0 mm 1 mps 748 mmHg 93%
    01:00 +12°C° 0 mm 1 mps 749 mmHg 94%
    02:00 +12°C° 0 mm 1 mps 749 mmHg 94%
    03:00 +12°C° 0 mm 1 mps 749 mmHg 93%
    04:00 +12°C° 0 mm 1 mps 749 mmHg 93%
    05:00 +12°C° 0 mm 1 mps 749 mmHg 92%
    06:00 +14°C° 0 mm 2 mps 750 mmHg 86%
    07:00 +15°C° 0 mm 2 mps 750 mmHg 80%
    08:00 +17°C° 0 mm 3 mps 750 mmHg 75%
    09:00 +17°C° 0.1 mm 3 mps 751 mmHg 75%
    10:00 +15°C° 0.1 mm 4 mps 751 mmHg 75%
    11:00 +15°C° 0.1 mm 4 mps 751 mmHg 75%
    12:00 +15°C° 0.1 mm 4 mps 752 mmHg 72%
    13:00 +14°C° 0.1 mm 4 mps 752 mmHg 69%
    14:00 +14°C° 0.1 mm 4 mps 752 mmHg 66%
    15:00 +15°C° 0 mm 4 mps 753 mmHg 60%
    16:00 +15°C° 0 mm 4 mps 753 mmHg 53%
    17:00 +17°C° 0 mm 4 mps 753 mmHg 46%
    18:00 +14°C° 0 mm 3 mps 754 mmHg 51%
    19:00 +13°C° 0 mm 3 mps 754 mmHg 56%
    20:00 +12°C° 0 mm 2 mps 755 mmHg 61%
    21:00 +10°C° 0 mm 2 mps 755 mmHg 61%
    22:00 +8°C° 0 mm 2 mps 755 mmHg 61%
    23:00 +7°C° 0 mm 2 mps 756 mmHg 61%

    25 May, Friday

    Time Temperature Precipitation Wind Pressure Humidity
    00:00 +6°C° 0 mm 2 mps 756 mmHg 62%
    01:00 +5°C° 0 mm 2 mps 756 mmHg 62%
    02:00 +5°C° 0 mm 2 mps 757 mmHg 63%
    03:00 +5°C° 0 mm 2 mps 757 mmHg 62%
    04:00 +6°C° 0 mm 2 mps 758 mmHg 61%
    05:00 +6°C° 0 mm 2 mps 758 mmHg 60%
    06:00 +8°C° 0 mm 2 mps 758 mmHg 53%
    07:00 +10°C° 0 mm 2 mps 758 mmHg 45%
    08:00 +13°C° 0 mm 2 mps 759 mmHg 38%
    09:00 +15°C° 0 mm 2 mps 759 mmHg 36%
    10:00 +16°C° 0 mm 2 mps 759 mmHg 34%
    11:00 +17°C° 0 mm 2 mps 759 mmHg 32%
    12:00 +18°C° 0 mm 2 mps 758 mmHg 32%
    13:00 +18°C° 0 mm 2 mps 758 mmHg 32%
    14:00 +19°C° 0 mm 2 mps 758 mmHg 31%
    15:00 +19°C° 0 mm 2 mps 758 mmHg 33%
    16:00 +19°C° 0 mm 2 mps 758 mmHg 35%
    17:00 +19°C° 0 mm 2 mps 758 mmHg 36%
    18:00 +17°C° 0 mm 2 mps 758 mmHg 44%
    19:00 +15°C° 0 mm 1 mps 758 mmHg 53%
    20:00 +13°C° 0 mm 1 mps 757 mmHg 61%
    21:00 +12°C° 0 mm 1 mps 758 mmHg 62%
    22:00 +11°C° 0 mm 1 mps 758 mmHg 63%
    23:00 +10°C° 0 mm 1 mps 758 mmHg 65%

    26 May, Saturday

    Time Temperature Precipitation Wind Pressure Humidity
    00:00 +10°C° 0 mm 1 mps 758 mmHg 66%
    01:00 +9°C° 0 mm 1 mps 759 mmHg 67%
    02:00 +9°C° 0 mm 1 mps 759 mmHg 68%
    03:00 +9°C° 0 mm 1 mps 759 mmHg 67%
    04:00 +9°C° 0 mm 2 mps 759 mmHg 66%
    05:00 +9°C° 0 mm 2 mps 760 mmHg 65%
    06:00 +13°C° 0 mm 2 mps 760 mmHg 59%
    07:00 +15°C° 0 mm 2 mps 760 mmHg 53%
    08:00 +17°C° 0 mm 3 mps 760 mmHg 46%
    09:00 +18°C° 0 mm 3 mps 760 mmHg 43%
    10:00 +20°C° 0 mm 3 mps 759 mmHg 40%
    11:00 +21°C° 0 mm 3 mps 759 mmHg 37%
    12:00 +22°C° 0 mm 3 mps 759 mmHg 37%
    13:00 +22°C° 0 mm 3 mps 759 mmHg 37%
    14:00 +24°C° 0 mm 3 mps 758 mmHg 37%
    15:00 +22°C° 0 mm 3 mps 758 mmHg 39%
    16:00 +22°C° 0 mm 3 mps 758 mmHg 41%
    17:00 +22°C° 0 mm 3 mps 757 mmHg 43%
    18:00 +20°C° 0 mm 3 mps 757 mmHg 52%
    19:00 +18°C° 0 mm 2 mps 757 mmHg 61%
    20:00 +16°C° 0 mm 2 mps 757 mmHg 70%
    21:00 +15°C° 0 mm 2 mps 757 mmHg 73%
    22:00 +14°C° 0 mm 2 mps 757 mmHg 76%
    23:00 +13°C° 0 mm 2 mps 757 mmHg 78%
    Show more